Powrót do katalogu

ZHONGDIAN NONGCHUANG

AktywnyNaukaSSO
NORAD 57429·PAYLOAD·🇨🇳 China
Ta nazwa satelity nie została jeszcze potwierdzona przez oficjalne źródła.

Wystrzelony Jul 23, 2023 z Taiyuan Satellite Launch Center

Loading…

Następne Przeloty (najbliższe 24 godziny)

TLE

ŚwieżeSource: Space-Track

Epoka: Sep 14, 2026, 11:31 UTC

1 57429U 23104F   26257.48009325  .00041615  00000-0  54159-3 0  9994
2 57429  97.2485 332.8857 0015645  64.9837 295.3041 15.58505635176368

Śledź ZHONGDIAN NONGCHUANG w czasie rzeczywistym z AllMySat

Download on the App Store